This is the latest recevied weather packets stored in our database for station/object KC1HBM. If no packets are shown the sender has not sent any weather packets the latest 10 day(s).
| Time | Temp. | Humidity | Pressure | Rain* | Wind** | Luminosity | Snow |
|---|---|---|---|---|---|---|---|
| 1777891072 | 8.89° C | 64% | 1006.2 hPa | 0 mm | - | 21 W/m² | - |
| 1777890767 | 8.89° C | 64% | 1006.3 hPa | 0 mm | - | 44 W/m² | - |
| 1777890464 | 8.89° C | 64% | 1006.5 hPa | 0 mm | - | 62 W/m² | - |
| 1777890159 | 8.33° C | 66% | 1006.3 hPa | 0 mm | - | 45 W/m² | - |
| 1777889856 | 7.78° C | 66% | 1006.6 hPa | 0 mm | - | 38 W/m² | - |
| 1777889554 | 6.67° C | 69% | 1006.4 hPa | 0 mm | - | 35 W/m² | - |
| 1777889251 | 6.11° C | 70% | 1006.5 hPa | 0 mm | - | 9 W/m² | - |
| 1777888949 | 6.11° C | 70% | 1006.5 hPa | 0 mm | - | 8 W/m² | - |
| 1777888646 | 6.11° C | 69% | 1006.5 hPa | 0 mm | - | 6 W/m² | - |
| 1777888341 | 6.11° C | 68% | 1006.3 hPa | 0 mm | - | 3 W/m² | - |
| 1777888038 | 6.11° C | 68% | 1006.4 hPa | 0 mm | - | 0 W/m² | - |
| 1777887735 | 6.11° C | 68% | 1006.4 hPa | 0 mm | - | 0 W/m² | - |
| 1777887432 | 6.11° C | 68% | 1006.5 hPa | 0 mm | - | 0 W/m² | - |
| 1777887127 | 6.11° C | 68% | 1006.5 hPa | 0 mm | - | 0 W/m² | - |
| 1777886823 | 6.11° C | 68% | 1006.8 hPa | 0 mm | - | 0 W/m² | - |
| 1777886519 | 6.11° C | 69% | 1006.6 hPa | 0 mm | - | 0 W/m² | - |
| 1777886218 | 5.56° C | 68% | 1006.6 hPa | 0 mm | - | 0 W/m² | - |
| 1777885915 | 5.56° C | 68% | 1006.5 hPa | 0 mm | - | 0 W/m² | - |
| 1777885614 | 5.56° C | 67% | 1006.6 hPa | 0 mm | - | 0 W/m² | - |
| 1777885312 | 5.56° C | 67% | 1006.6 hPa | 0 mm | - | 0 W/m² | - |
| 1777885010 | 5.56° C | 68% | 1006.5 hPa | 0 mm | - | 0 W/m² | - |
| 1777884704 | 5.56° C | 67% | 1006.4 hPa | 0 mm | - | 0 W/m² | - |
| 1777884402 | 5.56° C | 68% | 1006.3 hPa | 0 mm | - | 0 W/m² | - |
| 1777884098 | 5.56° C | 68% | 1006.4 hPa | 0 mm | - | 0 W/m² | - |
| 1777883796 | 5.56° C | 68% | 1006.3 hPa | 0 mm | - | 0 W/m² | - |
* Rain latest hour (hover to see other rain measurements)
** Current wind speed in m/s (hover to see current wind gust speed)